When you browse on this site, cookies collect data to enhance your experience and personalize the content and advertising you see.
Visit our Privacy Policy to learn more. By continuing to use the site, you agree to this use of cookies and data.
  • In Spain
  • List of Countries
  • For 7 days
  • Water Temperature
  • Weather Map
  • Weather Widgets
  • user-avatar
    Login

    Hourly Weather Krupytsya

    Today, 14 October, Monday

    Time Temperature Precipitation Wind Pressure Humidity
    00:00 +13°C° 0 mm 2 mps 763 mmHg 89%
    01:00 +13°C° 0 mm 2 mps 763 mmHg 90%
    02:00 +13°C° 0 mm 2 mps 763 mmHg 92%
    03:00 +13°C° 0 mm 2 mps 763 mmHg 92%
    04:00 +13°C° 0 mm 2 mps 763 mmHg 92%
    05:00 +12°C° 0 mm 1 mps 763 mmHg 92%
    06:00 +13°C° 0 mm 2 mps 763 mmHg 89%
    07:00 +14°C° 0 mm 2 mps 763 mmHg 86%
    08:00 +15°C° 0 mm 2 mps 764 mmHg 83%
    09:00 +17°C° 0 mm 2 mps 763 mmHg 73%
    10:00 +19°C° 0 mm 2 mps 763 mmHg 62%
    11:00 +20°C° 0 mm 2 mps 763 mmHg 51%
    12:00 +21°C° 0 mm 2 mps 763 mmHg 46%
    13:00 +23°C° 0 mm 2 mps 763 mmHg 41%
    14:00 +24°C° 0 mm 2 mps 762 mmHg 36%
    15:00 +23°C° 0 mm 2 mps 762 mmHg 39%
    16:00 +20°C° 0 mm 2 mps 762 mmHg 43%
    17:00 +20°C° 0 mm 1 mps 761 mmHg 47%
    18:00 +18°C° 0 mm 2 mps 761 mmHg 51%
    19:00 +17°C° 0 mm 2 mps 762 mmHg 56%
    20:00 +16°C° 0 mm 2 mps 762 mmHg 60%
    21:00 +15°C° 0 mm 2 mps 762 mmHg 63%
    22:00 +15°C° 0 mm 1 mps 761 mmHg 66%
    23:00 +14°C° 0 mm 1 mps 761 mmHg 68%

    Tomorrow, 15 October, Tuesday

    Time Temperature Precipitation Wind Pressure Humidity
    00:00 +14°C° 0 mm 1 mps 761 mmHg 69%
    01:00 +14°C° 0 mm 1 mps 761 mmHg 69%
    02:00 +12°C° 0 mm 0 mps 761 mmHg 70%
    03:00 +12°C° 0 mm 0 mps 761 mmHg 70%
    04:00 +12°C° 0 mm 0 mps 761 mmHg 71%
    05:00 +12°C° 0 mm 0 mps 760 mmHg 71%
    06:00 +13°C° 0 mm 0 mps 761 mmHg 67%
    07:00 +14°C° 0 mm 0 mps 761 mmHg 64%
    08:00 +16°C° 0 mm 1 mps 761 mmHg 60%
    09:00 +18°C° 0 mm 1 mps 761 mmHg 54%
    10:00 +20°C° 0 mm 1 mps 761 mmHg 48%
    11:00 +21°C° 0 mm 1 mps 761 mmHg 42%
    12:00 +22°C° 0 mm 1 mps 761 mmHg 39%
    13:00 +23°C° 0 mm 1 mps 760 mmHg 36%
    14:00 +24°C° 0 mm 1 mps 760 mmHg 33%
    15:00 +22°C° 0 mm 1 mps 760 mmHg 37%
    16:00 +21°C° 0 mm 1 mps 760 mmHg 40%
    17:00 +20°C° 0 mm 1 mps 759 mmHg 44%
    18:00 +19°C° 0 mm 1 mps 760 mmHg 45%
    19:00 +18°C° 0 mm 1 mps 760 mmHg 46%
    20:00 +18°C° 0 mm 1 mps 760 mmHg 47%
    21:00 +16°C° 0 mm 1 mps 760 mmHg 48%
    22:00 +16°C° 0 mm 1 mps 760 mmHg 49%
    23:00 +15°C° 0 mm 1 mps 760 mmHg 50%

    Day after tomorrow, 16 October, Wednesday

    Time Temperature Precipitation Wind Pressure Humidity
    00:00 +15°C° 0 mm 1 mps 760 mmHg 50%
    01:00 +15°C° 0 mm 2 mps 760 mmHg 50%
    02:00 +14°C° 0 mm 2 mps 760 mmHg 51%
    03:00 +14°C° 0 mm 2 mps 760 mmHg 52%
    04:00 +14°C° 0 mm 2 mps 760 mmHg 53%
    05:00 +13°C° 0 mm 2 mps 760 mmHg 54%
    06:00 +14°C° 0 mm 2 mps 760 mmHg 53%
    07:00 +15°C° 0 mm 2 mps 760 mmHg 51%
    08:00 +16°C° 0 mm 3 mps 760 mmHg 50%
    09:00 +18°C° 0 mm 3 mps 760 mmHg 45%
    10:00 +20°C° 0 mm 3 mps 760 mmHg 40%
    11:00 +22°C° 0 mm 3 mps 760 mmHg 36%
    12:00 +22°C° 0 mm 3 mps 760 mmHg 34%
    13:00 +24°C° 0 mm 2 mps 760 mmHg 32%
    14:00 +25°C° 0 mm 2 mps 759 mmHg 31%
    15:00 +23°C° 0 mm 2 mps 759 mmHg 35%
    16:00 +21°C° 0 mm 2 mps 759 mmHg 40%
    17:00 +19°C° 0 mm 2 mps 759 mmHg 44%
    18:00 +18°C° 0 mm 2 mps 759 mmHg 47%
    19:00 +18°C° 0 mm 2 mps 759 mmHg 50%
    20:00 +17°C° 0 mm 2 mps 759 mmHg 53%
    21:00 +17°C° 0 mm 2 mps 759 mmHg 54%
    22:00 +16°C° 0 mm 2 mps 759 mmHg 55%
    23:00 +16°C° 0 mm 2 mps 759 mmHg 57%

    17 October, Thursday

    Time Temperature Precipitation Wind Pressure Humidity
    00:00 +15°C° 0 mm 2 mps 759 mmHg 58%
    01:00 +15°C° 0 mm 2 mps 759 mmHg 60%
    02:00 +15°C° 0 mm 2 mps 759 mmHg 62%
    03:00 +14°C° 0 mm 2 mps 759 mmHg 64%
    04:00 +14°C° 0 mm 2 mps 759 mmHg 67%
    05:00 +13°C° 0 mm 3 mps 760 mmHg 70%
    06:00 +14°C° 0 mm 3 mps 759 mmHg 68%
    07:00 +14°C° 0 mm 3 mps 759 mmHg 66%
    08:00 +16°C° 0 mm 3 mps 759 mmHg 65%
    09:00 +18°C° 0 mm 3 mps 759 mmHg 58%
    10:00 +20°C° 0 mm 3 mps 760 mmHg 51%
    11:00 +23°C° 0 mm 2 mps 760 mmHg 44%
    12:00 +24°C° 0 mm 2 mps 759 mmHg 42%
    13:00 +24°C° 0 mm 2 mps 759 mmHg 39%
    14:00 +25°C° 0 mm 2 mps 759 mmHg 36%
    15:00 +23°C° 0 mm 2 mps 758 mmHg 41%
    16:00 +21°C° 0 mm 2 mps 758 mmHg 45%
    17:00 +20°C° 0 mm 2 mps 758 mmHg 49%
    18:00 +19°C° 0 mm 2 mps 758 mmHg 52%
    19:00 +18°C° 0 mm 2 mps 758 mmHg 55%
    20:00 +18°C° 0 mm 1 mps 759 mmHg 58%
    21:00 +18°C° 0 mm 1 mps 759 mmHg 59%
    22:00 +16°C° 0 mm 1 mps 759 mmHg 61%
    23:00 +16°C° 0 mm 1 mps 759 mmHg 62%

    18 October, Friday

    Time Temperature Precipitation Wind Pressure Humidity
    00:00 +16°C° 0 mm 1 mps 759 mmHg 62%
    01:00 +16°C° 0 mm 1 mps 758 mmHg 62%
    02:00 +15°C° 0 mm 1 mps 758 mmHg 62%
    03:00 +15°C° 0 mm 2 mps 759 mmHg 63%
    04:00 +15°C° 0 mm 2 mps 759 mmHg 63%
    05:00 +14°C° 0 mm 2 mps 759 mmHg 63%
    06:00 +15°C° 0 mm 2 mps 759 mmHg 61%
    07:00 +16°C° 0 mm 2 mps 759 mmHg 59%
    08:00 +17°C° 0 mm 2 mps 759 mmHg 56%
    09:00 +19°C° 0 mm 3 mps 759 mmHg 50%
    10:00 +20°C° 0 mm 3 mps 759 mmHg 44%
    11:00 +22°C° 0 mm 3 mps 760 mmHg 38%
    12:00 +24°C° 0 mm 3 mps 759 mmHg 36%
    13:00 +24°C° 0 mm 3 mps 759 mmHg 34%
    14:00 +25°C° 0 mm 3 mps 759 mmHg 31%
    15:00 +22°C° 0 mm 3 mps 759 mmHg 35%
    16:00 +21°C° 0 mm 3 mps 759 mmHg 39%
    17:00 +19°C° 0 mm 2 mps 759 mmHg 43%
    18:00 +18°C° 0 mm 2 mps 759 mmHg 44%
    19:00 +18°C° 0 mm 3 mps 759 mmHg 46%
    20:00 +17°C° 0 mm 3 mps 760 mmHg 47%
    21:00 +17°C° 0 mm 3 mps 760 mmHg 50%
    22:00 +16°C° 0 mm 3 mps 760 mmHg 53%
    23:00 +16°C° 0 mm 3 mps 760 mmHg 56%

    19 October, Saturday

    Time Temperature Precipitation Wind Pressure Humidity
    00:00 +14°C° 0 mm 3 mps 760 mmHg 59%
    01:00 +14°C° 0 mm 3 mps 760 mmHg 61%
    02:00 +14°C° 0 mm 3 mps 760 mmHg 64%
    03:00 +13°C° 0 mm 3 mps 760 mmHg 67%
    04:00 +13°C° 0 mm 3 mps 760 mmHg 70%
    05:00 +13°C° 0 mm 3 mps 760 mmHg 73%
    06:00 +13°C° 0 mm 3 mps 761 mmHg 70%
    07:00 +14°C° 0 mm 3 mps 761 mmHg 68%
    08:00 +15°C° 0 mm 4 mps 761 mmHg 65%
    09:00 +18°C° 0 mm 3 mps 761 mmHg 59%
    10:00 +19°C° 0 mm 3 mps 761 mmHg 53%
    11:00 +21°C° 0 mm 3 mps 761 mmHg 46%
    12:00 +22°C° 0 mm 3 mps 761 mmHg 45%
    13:00 +22°C° 0 mm 3 mps 761 mmHg 44%
    14:00 +24°C° 0 mm 3 mps 761 mmHg 43%
    15:00 +21°C° 0 mm 3 mps 761 mmHg 48%
    16:00 +20°C° 0 mm 3 mps 761 mmHg 53%
    17:00 +19°C° 0 mm 3 mps 760 mmHg 57%
    18:00 +18°C° 0 mm 3 mps 761 mmHg 60%
    19:00 +17°C° 0 mm 3 mps 761 mmHg 62%
    20:00 +16°C° 0 mm 3 mps 761 mmHg 64%
    21:00 +16°C° 0 mm 3 mps 761 mmHg 67%
    22:00 +15°C° 0 mm 2 mps 761 mmHg 69%
    23:00 +15°C° 0 mm 2 mps 761 mmHg 72%
    Show more